,,,PA_Meas_PMT16A,,PR_Meas_QMR101_102,,RH_Meas_QMH101,,SR_Meas_QMS101,,TA_Meas_QMH101,,GenWind,,GenWind,
date,time,status,PA,status,PR,status,RH,status,SR,status,TA,status,DirAvg,status,SpdAvg,
2009-06-10, 00:00:04,VALID,1003.71,VALID,0,VALID,88,VALID,0,VALID,24.2495,VALID,344,VALID,0,
2009-06-10, 00:01:04,VALID,1003.69,VALID,0,VALID,88.0687,VALID,0,VALID,24.1891,VALID,344,VALID,0,
2009-06-10, 00:02:04,VALID,1003.73,VALID,0,VALID,88.1297,VALID,0,VALID,24.1891,VALID,344,VALID,0,
2009-06-10, 00:03:04,VALID,1003.72,VALID,0,VALID,88.2518,VALID,0,VALID,24.1696,VALID,344,VALID,0,
2009-06-10, 00:04:04,VALID,1003.71,VALID,0,VALID,88.4502,VALID,0,VALID,24.1714,VALID,344,VALID,0,
2009-06-10, 00:05:04,VALID,1003.72,VALID,0,VALID,88.9614,VALID,0,VALID,24.1714,VALID,344,VALID,0.05625,
2009-06-10, 00:06:04,VALID,1003.75,VALID,0,VALID,89.0453,VALID,0,VALID,24.2104,VALID,136,VALID,1.02383,
2009-06-10, 00:07:04,VALID,1003.72,VALID,0,VALID,88.5036,VALID,0,VALID,24.2104,VALID,126,VALID,1.31641,
2009-06-10, 00:08:04,VALID,1003.74,VALID,0,VALID,88.2976,VALID,0,VALID,24.2495,VALID,124,VALID,1.31133,
2009-06-10, 00:09:04,VALID,1003.76,VALID,0,VALID,88.8011,VALID,0,VALID,24.2885,VALID,126,VALID,1.21992,
2009-06-10, 00:10:04,VALID,1003.75,VALID,0,VALID,88.3815,VALID,0,VALID,24.2885,VALID,126,VALID,1.19805,
2009-06-10, 00:11:04,VALID,1003.76,VALID,0,VALID,88.1145,VALID,0,VALID,24.2866,VALID,127,VALID,0.978516,
2009-06-10, 00:12:04,VALID,1003.75,VALID,0,VALID,88.2747,VALID,0,VALID,24.3275,VALID,127,VALID,0.528125,
2009-06-10, 00:13:04,VALID,1003.77,VALID,0,VALID,88.2671,VALID,0,VALID,24.3275,VALID,127,VALID,0.182812,
2009-06-10, 00:14:04,VALID,1003.77,VALID,0,VALID,88.9003,VALID,0,VALID,24.3275,VALID,352,VALID,1.2625,
2009-06-10, 00:15:04,VALID,1003.72,VALID,0,VALID,88.6638,VALID,0,VALID,24.2495,VALID,357,VALID,1.19844,
2009-06-10, 00:16:04,VALID,1003.72,VALID,0,VALID,88.7859,VALID,0,VALID,24.1714,VALID,348,VALID,0.952734,
2009-06-10, 00:17:04,VALID,1003.7,VALID,0,VALID,87.9543,VALID,0,VALID,24.1324,VALID,3,VALID,0.893359,
2009-06-10, 00:18:04,VALID,1003.68,VALID,0,VALID,87.5423,VALID,0,VALID,24.1128,VALID,7,VALID,1.40547,
2009-06-10, 00:19:04,VALID,1003.67,VALID,0,VALID,88.2594,VALID,0,VALID,24.0738,VALID,2,VALID,0.930469,
2009-06-10, 00:20:04,VALID,1003.67,VALID,0,VALID,88.5723,VALID,0,VALID,24.0348,VALID,2,VALID,0.585547,
2009-06-10, 00:21:04,VALID,1003.62,VALID,0,VALID,88.4197,VALID,0,VALID,23.9957,VALID,2,VALID,0.379687,
2009-06-10, 00:22:04,VALID,1003.61,VALID,0,VALID,88.351,VALID,0,VALID,23.9762,VALID,2,VALID,0.389062,
2009-06-10, 00:23:04,VALID,1003.6,VALID,0,VALID,88.7172,VALID,0,VALID,23.9762,VALID,2,VALID,0.349219,
2009-06-10, 00:24:04,VALID,1003.61,VALID,0,VALID,88.9385,VALID,0,VALID,23.9372,VALID,2,VALID,0.258984,
2009-06-10, 00:25:04,VALID,1003.61,VALID,0,VALID,88.8546,VALID,0,VALID,23.9159,VALID,6,VALID,0.528125,
2009-06-10, 00:26:04,VALID,1003.63,VALID,0,VALID,89.2055,VALID,0,VALID,23.9159,VALID,15,VALID,0.723047,
2009-06-10, 00:27:04,VALID,1003.62,VALID,0,VALID,89.32,VALID,0,VALID,23.8768,VALID,19,VALID,0.956641,
2009-06-10, 00:28:04,VALID,1003.58,VALID,0,VALID,89.4573,VALID,0,VALID,23.8378,VALID,18,VALID,0.413672,
2009-06-10, 00:29:04,VALID,1003.6,VALID,0,VALID,89.5946,VALID,0,VALID,23.8183,VALID,18,VALID,0.273828,
2009-06-10, 00:30:04,VALID,1003.59,VALID,0,VALID,89.7243,VALID,0,VALID,23.7988,VALID,19,VALID,0.280469,
2009-06-10, 00:31:04,VALID,1003.55,VALID,0,VALID,89.3428,VALID,0,VALID,23.7597,VALID,64,VALID,0.725391,
2009-06-10, 00:32:04,VALID,1003.55,VALID,0,VALID,89.4191,VALID,0,VALID,23.6994,VALID,64,VALID,0.694531,
2009-06-10, 00:33:04,VALID,1003.51,VALID,0,VALID,89.6023,VALID,0,VALID,23.7402,VALID,64,VALID,0.678906,
2009-06-10, 00:34:04,VALID,1003.52,VALID,0,VALID,89.6709,VALID,0,VALID,23.7207,VALID,65,VALID,0.848047,
2009-06-10, 00:35:04,VALID,1003.5,VALID,0,VALID,89.6938,VALID,0,VALID,23.7012,VALID,68,VALID,1.07734,
2009-06-10, 00:36:04,VALID,1003.47,VALID,0,VALID,89.6251,VALID,0,VALID,23.6817,VALID,71,VALID,0.952344,
2009-06-10, 00:37:04,VALID,1003.44,VALID,0,VALID,89.7854,VALID,0,VALID,23.7012,VALID,74,VALID,0.694531,
2009-06-10, 00:38:04,VALID,1003.47,VALID,0,VALID,89.8388,VALID,0,VALID,23.6817,VALID,74,VALID,0.4375,
2009-06-10, 00:39:04,VALID,1003.45,VALID,0,VALID,89.8464,VALID,0,VALID,23.6817,VALID,74,VALID,0.24375,
2009-06-10, 00:40:04,VALID,1003.45,VALID,0,VALID,90.0066,VALID,0,VALID,23.6427,VALID,47,VALID,0.495703,
2009-06-10, 00:41:04,VALID,1003.44,VALID,0,VALID,89.9914,VALID,0,VALID,23.6036,VALID,14,VALID,0.636328,
2009-06-10, 00:42:04,VALID,1003.44,VALID,0,VALID,89.9074,VALID,0,VALID,23.625,VALID,29,VALID,0.792578,
2009-06-10, 00:43:04,VALID,1003.44,VALID,0,VALID,89.6175,VALID,0,VALID,23.625,VALID,41,VALID,0.898047,
2009-06-10, 00:44:04,VALID,1003.42,VALID,0,VALID,89.4191,VALID,0,VALID,23.625,VALID,56,VALID,1.0332,
2009-06-10, 00:45:04,VALID,1003.43,VALID,0,VALID,89.32,VALID,0,VALID,23.625,VALID,56,VALID,0.994141,
2009-06-10, 00:46:04,VALID,1003.43,VALID,0,VALID,89.1597,VALID,0,VALID,23.6054,VALID,56,VALID,0.844531,
2009-06-10, 00:47:04,VALID,1003.4,VALID,0,VALID,89.1521,VALID,0,VALID,23.5859,VALID,52,VALID,0.745703,
2009-06-10, 00:48:04,VALID,1003.4,VALID,0,VALID,89.6175,VALID,0,VALID,23.5664,VALID,44,VALID,0.920703,
2009-06-10, 00:49:04,VALID,1003.4,VALID,0,VALID,90.1058,VALID,0,VALID,23.5274,VALID,43,VALID,1.03359,
2009-06-10, 00:50:04,VALID,1003.38,VALID,0,VALID,90.1516,VALID,0,VALID,23.5079,VALID,43,VALID,1.06445,
2009-06-10, 00:51:04,VALID,1003.4,VALID,0,VALID,90.1592,VALID,0,VALID,23.5079,VALID,47,VALID,0.898047,
2009-06-10, 00:52:04,VALID,1003.41,VALID,0,VALID,90.1058,VALID,0,VALID,23.4688,VALID,47,VALID,0.651563,
2009-06-10, 00:53:04,VALID,1003.4,VALID,0,VALID,90.2431,VALID,0,VALID,23.4298,VALID,29,VALID,0.863672,
2009-06-10, 00:54:04,VALID,1003.42,VALID,0,VALID,90.5331,VALID,0,VALID,23.35,VALID,25,VALID,0.964844,
2009-06-10, 00:55:04,VALID,1003.42,VALID,0,VALID,91.3723,VALID,0,VALID,23.2915,VALID,43,VALID,1.42188,
2009-06-10, 00:56:04,VALID,1003.41,VALID,0,VALID,91.6928,VALID,0,VALID,23.2719,VALID,41,VALID,1.22734,
2009-06-10, 00:57:04,VALID,1003.41,VALID,0,VALID,91.8454,VALID,0,VALID,23.2524,VALID,44,VALID,1.15352,
2009-06-10, 00:58:04,VALID,1003.39,VALID,0,VALID,91.9369,VALID,0,VALID,23.1921,VALID,42,VALID,0.967969,
2009-06-10, 00:59:04,VALID,1003.36,VALID,0,VALID,91.914,VALID,0,VALID,23.1744,VALID,40,VALID,0.688281,
2009-06-10, 01:00:04,VALID,1003.34,VALID,0,VALID,91.9445,VALID,0,VALID,23.1141,VALID,25,VALID,0.614062,
2009-06-10, 01:01:04,VALID,1003.3,VALID,0,VALID,92.1048,VALID,0,VALID,23.1159,VALID,25,VALID,0.529688,
2009-06-10, 01:02:04,VALID,1003.29,VALID,0,VALID,92.1658,VALID,0,VALID,23.0964,VALID,25,VALID,0.775,
2009-06-10, 01:03:04,VALID,1003.25,VALID,0,VALID,92.2421,VALID,0,VALID,23.0769,VALID,25,VALID,0.705078,
2009-06-10, 01:04:04,VALID,1003.27,VALID,0,VALID,92.2421,VALID,0,VALID,23.0769,VALID,25,VALID,0.611719,
2009-06-10, 01:05:04,VALID,1003.28,VALID,0,VALID,92.1506,VALID,0,VALID,23.0378,VALID,25,VALID,0.473828,
2009-06-10, 01:06:04,VALID,1003.25,VALID,0,VALID,92.0743,VALID,0,VALID,23.0378,VALID,25,VALID,0.31875,
2009-06-10, 01:07:04,VALID,1003.26,VALID,0,VALID,92.1277,VALID,0,VALID,22.9988,VALID,25,VALID,0.185937,
2009-06-10, 01:08:04,VALID,1003.22,VALID,0,VALID,92.1734,VALID,0.112286,VALID,22.9793,VALID,25,VALID,0,
2009-06-10, 01:09:04,VALID,1003.2,VALID,0,VALID,92.1811,VALID,0,VALID,22.9598,VALID,25,VALID,0,
2009-06-10, 01:10:04,VALID,1003.17,VALID,0,VALID,92.2345,VALID,0,VALID,22.942,VALID,25,VALID,0,
2009-06-10, 01:11:04,VALID,1003.18,VALID,0,VALID,92.4328,VALID,0,VALID,22.942,VALID,25,VALID,0,
2009-06-10, 01:12:04,VALID,1003.15,VALID,0,VALID,92.5778,VALID,0,VALID,22.9208,VALID,25,VALID,0.436719,
2009-06-10, 01:13:04,VALID,1003.14,VALID,0,VALID,92.8601,VALID,0,VALID,22.942,VALID,25,VALID,0.5625,
2009-06-10, 01:14:04,VALID,1003.1,VALID,0,VALID,92.9059,VALID,0,VALID,22.9811,VALID,98,VALID,0.696875,
2009-06-10, 01:15:04,VALID,1003.06,VALID,0,VALID,92.8677,VALID,0,VALID,23.0396,VALID,124,VALID,0.835938,
2009-06-10, 01:16:04,VALID,1003.07,VALID,0,VALID,92.5091,VALID,0,VALID,23.0591,VALID,142,VALID,1.02109,
2009-06-10, 01:17:04,VALID,1003.04,VALID,0,VALID,92.2574,VALID,0,VALID,23.0786,VALID,149,VALID,1.03086,
2009-06-10, 01:18:04,VALID,1003.05,VALID,0,VALID,92.1277,VALID,0,VALID,23.1371,VALID,149,VALID,1.1293,
2009-06-10, 01:19:04,VALID,1003.03,VALID,0,VALID,91.853,VALID,0,VALID,23.1762,VALID,159,VALID,1.01172,
2009-06-10, 01:20:04,VALID,1003.04,VALID,0,VALID,91.6241,VALID,0,VALID,23.2152,VALID,169,VALID,1.15352,
2009-06-10, 01:21:04,VALID,1003.08,VALID,0,VALID,91.38,VALID,0,VALID,23.2932,VALID,172,VALID,1.01641,
2009-06-10, 01:22:04,VALID,1003.08,VALID,0,VALID,91.0366,VALID,0,VALID,23.3323,VALID,163,VALID,0.892187,
2009-06-10, 01:23:04,VALID,1003.08,VALID,0,VALID,90.7391,VALID,0,VALID,23.3713,VALID,173,VALID,0.805078,
2009-06-10, 01:24:04,VALID,1003.08,VALID,0,VALID,90.3805,VALID,0,VALID,23.4103,VALID,173,VALID,0.574609,
2009-06-10, 01:25:04,VALID,1003.07,VALID,0,VALID,90.0677,VALID,0,VALID,23.428,VALID,162,VALID,0.257422,
2009-06-10, 01:26:04,VALID,1003.09,VALID,0,VALID,89.9837,VALID,0,VALID,23.4688,VALID,162,VALID,0.221094,
2009-06-10, 01:27:04,VALID,1003.04,VALID,0,VALID,89.999,VALID,0,VALID,23.4884,VALID,162,VALID,0.447656,
2009-06-10, 01:28:04,VALID,1003.06,VALID,0,VALID,89.999,VALID,0,VALID,23.4671,VALID,161,VALID,0.440234,
2009-06-10, 01:29:04,VALID,1003.07,VALID,0,VALID,90.0753,VALID,0,VALID,23.4671,VALID,155,VALID,0.449219,
2009-06-10, 01:30:04,VALID,1003.05,VALID,0,VALID,89.8769,VALID,0,VALID,23.4688,VALID,152,VALID,0.430078,
2009-06-10, 01:31:04,VALID,1003,VALID,0,VALID,89.793,VALID,0,VALID,23.4493,VALID,113,VALID,0.626172,
2009-06-10, 01:32:04,VALID,1003.01,VALID,0,VALID,89.5183,VALID,0,VALID,23.4688,VALID,112,VALID,0.405469,
2009-06-10, 01:33:04,VALID,1003.01,VALID,0,VALID,89.3657,VALID,0,VALID,23.4493,VALID,71,VALID,0.491406,
2009-06-10, 01:34:04,VALID,1003.01,VALID,0,VALID,89.5336,VALID,0,VALID,23.4493,VALID,99,VALID,0.610937,
2009-06-10, 01:35:04,VALID,1003.01,VALID,0,VALID,89.6175,VALID,0,VALID,23.4493,VALID,99,VALID,0.5875,
2009-06-10, 01:36:04,VALID,1002.99,VALID,0,VALID,89.6938,VALID,0,VALID,23.4298,VALID,99,VALID,0.688672,
2009-06-10, 01:37:04,VALID,1003,VALID,0,VALID,89.732,VALID,0,VALID,23.389,VALID,76,VALID,0.659766,
2009-06-10, 01:38:04,VALID,1002.99,VALID,0,VALID,89.6709,VALID,0,VALID,23.4103,VALID,81,VALID,0.603125,
2009-06-10, 01:39:04,VALID,1002.96,VALID,0,VALID,89.6099,VALID,0,VALID,23.389,VALID,82,VALID,0.498047,
2009-06-10, 01:40:04,VALID,1002.96,VALID,0,VALID,89.526,VALID,0,VALID,23.4085,VALID,83,VALID,0.319141,
2009-06-10, 01:41:04,VALID,1002.92,VALID,0,VALID,89.4649,VALID,0,VALID,23.4085,VALID,83,VALID,0.247266,
2009-06-10, 01:42:04,VALID,1002.89,VALID,0,VALID,89.4878,VALID,0,VALID,23.389,VALID,83,VALID,0.333594,
2009-06-10, 01:43:04,VALID,1002.89,VALID,0,VALID,89.5641,VALID,0,VALID,23.3695,VALID,83,VALID,0.3875,
2009-06-10, 01:44:04,VALID,1002.88,VALID,0,VALID,89.5641,VALID,0,VALID,23.3695,VALID,83,VALID,0.0335938,
2009-06-10, 01:45:04,VALID,1002.84,VALID,0,VALID,89.5489,VALID,0,VALID,23.3713,VALID,83,VALID,0.186719,
2009-06-10, 01:46:04,VALID,1002.85,VALID,0,VALID,89.7625,VALID,0,VALID,23.35,VALID,77,VALID,0.354297,
2009-06-10, 01:47:04,VALID,1002.84,VALID,0,VALID,89.9456,VALID,0,VALID,23.4298,VALID,45,VALID,0.084375,
2009-06-10, 01:48:04,VALID,1002.85,VALID,0,VALID,89.6328,VALID,0,VALID,23.428,VALID,45,VALID,0.373828,
2009-06-10, 01:49:04,VALID,1002.86,VALID,0,VALID,89.5946,VALID,0,VALID,23.4085,VALID,44,VALID,0.394531,
2009-06-10, 01:50:04,VALID,1002.86,VALID,0,VALID,89.6023,VALID,0,VALID,23.428,VALID,19,VALID,0.420312,
2009-06-10, 01:51:04,VALID,1002.87,VALID,0,VALID,89.5717,VALID,0,VALID,23.4085,VALID,19,VALID,0.311328,
2009-06-10, 01:52:04,VALID,1002.86,VALID,0,VALID,89.6175,VALID,0,VALID,23.4085,VALID,19,VALID,0.275391,
2009-06-10, 01:53:04,VALID,1002.89,VALID,0,VALID,89.6786,VALID,0,VALID,23.4085,VALID,19,VALID,0.278125,
2009-06-10, 01:54:04,VALID,1002.92,VALID,0,VALID,89.5717,VALID,0,VALID,23.428,VALID,19,VALID,0,
2009-06-10, 01:55:04,VALID,1002.94,VALID,0,VALID,89.6023,VALID,0,VALID,23.428,VALID,14,VALID,0.336719,
2009-06-10, 01:56:04,VALID,1002.97,VALID,0,VALID,89.8006,VALID,0,VALID,23.3695,VALID,326,VALID,1.17148,
2009-06-10, 01:57:04,VALID,1003.02,VALID,0,VALID,90.2584,VALID,0,VALID,23.3127,VALID,321,VALID,0.773047,
2009-06-10, 01:58:04,VALID,1003.05,VALID,0,VALID,90.6246,VALID,0,VALID,23.2524,VALID,319,VALID,0.633594,
2009-06-10, 01:59:04,VALID,1003.11,VALID,0,VALID,91.0366,VALID,0,VALID,23.2134,VALID,321,VALID,1.19336,
2009-06-10, 02:00:04,VALID,1003.13,VALID,0,VALID,91.3342,VALID,0,VALID,23.1744,VALID,316,VALID,1.4582,
2009-06-10, 02:01:04,VALID,1003.11,VALID,0,VALID,91.502,VALID,0,VALID,23.1354,VALID,305,VALID,0.945313,
2009-06-10, 02:02:04,VALID,1003.11,VALID,0,VALID,91.4639,VALID,0,VALID,23.1354,VALID,299,VALID,1.5707,
2009-06-10, 02:03:04,VALID,1003.08,VALID,0,VALID,91.4257,VALID,0,VALID,23.1549,VALID,299,VALID,1.17227,
2009-06-10, 02:04:04,VALID,1003.07,VALID,0,VALID,91.1968,VALID,0,VALID,23.2134,VALID,293,VALID,0.961328,
2009-06-10, 02:05:04,VALID,1003.08,VALID,0,VALID,90.9832,VALID,0,VALID,23.2312,VALID,310,VALID,0.458984,
2009-06-10, 02:06:04,VALID,1003.08,VALID,0,VALID,90.9298,VALID,0,VALID,23.2719,VALID,287,VALID,0.928125,
2009-06-10, 02:07:04,VALID,1003.09,VALID,0,VALID,90.4415,VALID,0,VALID,23.3305,VALID,286,VALID,1.30117,
2009-06-10, 02:08:04,VALID,1003.09,VALID,0,VALID,90.0753,VALID,0,VALID,23.3695,VALID,297,VALID,1.38125,
2009-06-10, 02:09:04,VALID,1003.13,VALID,0,VALID,89.9532,VALID,0,VALID,23.4298,VALID,289,VALID,1.44062,
2009-06-10, 02:10:04,VALID,1003.18,VALID,0,VALID,89.5641,VALID,0,VALID,23.4475,VALID,290,VALID,1.58789,
2009-06-10, 02:11:04,VALID,1003.19,VALID,0,VALID,89.5412,VALID,0,VALID,23.5061,VALID,288,VALID,1.12227,
2009-06-10, 02:12:04,VALID,1003.22,VALID,0,VALID,89.1674,VALID,0,VALID,23.5256,VALID,284,VALID,1.56406,
2009-06-10, 02:13:04,VALID,1003.24,VALID,0,VALID,88.9843,VALID,0,VALID,23.5646,VALID,253,VALID,1.38516,
2009-06-10, 02:14:04,VALID,1003.24,VALID,0,VALID,88.969,VALID,0,VALID,23.6036,VALID,246,VALID,1.29258,
2009-06-10, 02:15:04,VALID,1003.23,VALID,0,VALID,89.0071,VALID,0,VALID,23.6427,VALID,271,VALID,0.971484,
2009-06-10, 02:16:04,VALID,1003.22,VALID,0,VALID,89.4268,VALID,0,VALID,23.7793,VALID,284,VALID,1.72227,
2009-06-10, 02:17:04,VALID,1003.22,VALID,0,VALID,89.526,VALID,0,VALID,23.8963,VALID,282,VALID,1.58281,
2009-06-10, 02:18:04,VALID,1003.24,VALID,0.5,VALID,89.3276,VALID,0,VALID,23.8963,VALID,251,VALID,0.729688,
2009-06-10, 02:19:04,VALID,1003.25,VALID,0,VALID,89.7777,VALID,0,VALID,23.8768,VALID,282,VALID,0.848828,
2009-06-10, 02:20:04,VALID,1003.28,VALID,0,VALID,90.5178,VALID,0,VALID,23.8573,VALID,307,VALID,1.42031,
2009-06-10, 02:21:04,VALID,1003.3,VALID,0.5,VALID,90.9756,VALID,0,VALID,23.8378,VALID,278,VALID,1.23711,
2009-06-10, 02:22:04,VALID,1003.28,VALID,0,VALID,91.4105,VALID,0,VALID,23.7988,VALID,262,VALID,0.432813,
2009-06-10, 02:23:04,VALID,1003.31,VALID,0,VALID,91.7233,VALID,0,VALID,23.7597,VALID,212,VALID,0.513672,
2009-06-10, 02:24:04,VALID,1003.3,VALID,0,VALID,92.0132,VALID,0,VALID,23.7207,VALID,216,VALID,0.228516,
2009-06-10, 02:25:04,VALID,1003.32,VALID,0,VALID,92.2345,VALID,0,VALID,23.7207,VALID,217,VALID,0.211328,
2009-06-10, 02:26:04,VALID,1003.28,VALID,0,VALID,92.4023,VALID,0,VALID,23.6817,VALID,217,VALID,0,
2009-06-10, 02:27:04,VALID,1003.29,VALID,0.5,VALID,92.6999,VALID,0,VALID,23.6817,VALID,239,VALID,0.551953,
2009-06-10, 02:28:04,VALID,1003.34,VALID,0,VALID,92.8754,VALID,0,VALID,23.6817,VALID,242,VALID,0.147656,
2009-06-10, 02:29:04,VALID,1003.3,VALID,0.5,VALID,93.0432,VALID,0,VALID,23.6817,VALID,259,VALID,0.729297,
2009-06-10, 02:30:04,VALID,1003.27,VALID,0,VALID,93.1043,VALID,0,VALID,23.6817,VALID,315,VALID,0.672656,
2009-06-10, 02:31:04,VALID,1003.22,VALID,0,VALID,93.1119,VALID,0,VALID,23.6817,VALID,288,VALID,1.09727,
2009-06-10, 02:32:04,VALID,1003.19,VALID,0,VALID,93.1271,VALID,0,VALID,23.6817,VALID,263,VALID,0.517578,
2009-06-10, 02:33:04,VALID,1003.16,VALID,0.5,VALID,93.15,VALID,0,VALID,23.6817,VALID,259,VALID,0.514844,
2009-06-10, 02:34:04,VALID,1003.15,VALID,0,VALID,93.2034,VALID,0,VALID,23.6604,VALID,283,VALID,0.570313,
2009-06-10, 02:35:04,VALID,1003.13,VALID,0,VALID,93.1958,VALID,0,VALID,23.6622,VALID,273,VALID,0.543359,
2009-06-10, 02:36:04,VALID,1003.14,VALID,0,VALID,93.1882,VALID,0,VALID,23.6622,VALID,270,VALID,0.467187,
2009-06-10, 02:37:04,VALID,1003.15,VALID,0,VALID,93.1119,VALID,0,VALID,23.6427,VALID,287,VALID,0.859766,
2009-06-10, 02:38:04,VALID,1003.14,VALID,0,VALID,93.0661,VALID,0,VALID,23.6427,VALID,301,VALID,0.70625,
2009-06-10, 02:39:04,VALID,1003.18,VALID,0,VALID,93.0432,VALID,0,VALID,23.6427,VALID,302,VALID,0.826172,
2009-06-10, 02:40:04,VALID,1003.19,VALID,0,VALID,92.9135,VALID,0,VALID,23.6232,VALID,316,VALID,1.13125,
2009-06-10, 02:41:04,VALID,1003.23,VALID,0,VALID,92.9745,VALID,0,VALID,23.6427,VALID,339,VALID,0.274609,
2009-06-10, 02:42:04,VALID,1003.2,VALID,0.5,VALID,93.1119,VALID,0,VALID,23.664,VALID,344,VALID,0.848828,
2009-06-10, 02:43:04,VALID,1003.17,VALID,0,VALID,93.0508,VALID,0,VALID,23.6427,VALID,5,VALID,1.02539,
2009-06-10, 02:44:04,VALID,1003.2,VALID,0.5,VALID,93.2034,VALID,0,VALID,23.6427,VALID,274,VALID,1.3543,
2009-06-10, 02:45:04,VALID,1003.25,VALID,0,VALID,93.1119,VALID,0,VALID,23.6427,VALID,301,VALID,2.14766,
2009-06-10, 02:46:04,VALID,1003.25,VALID,0,VALID,93.0585,VALID,0,VALID,23.6427,VALID,293,VALID,1.08828,
2009-06-10, 02:47:04,VALID,1003.23,VALID,0,VALID,93.0966,VALID,0,VALID,23.6427,VALID,237,VALID,0.716406,
2009-06-10, 02:48:04,VALID,1003.27,VALID,0,VALID,93.1653,VALID,0,VALID,23.6232,VALID,283,VALID,0.879297,
2009-06-10, 02:49:04,VALID,1003.25,VALID,0,VALID,93.234,VALID,0,VALID,23.6036,VALID,281,VALID,0.541016,
2009-06-10, 02:50:04,VALID,1003.29,VALID,0,VALID,93.3331,VALID,0,VALID,23.6232,VALID,282,VALID,0.967969,
2009-06-10, 02:51:04,VALID,1003.29,VALID,0,VALID,93.3789,VALID,0,VALID,23.6445,VALID,287,VALID,0.641016,
2009-06-10, 02:52:04,VALID,1003.3,VALID,0,VALID,93.3866,VALID,0,VALID,23.625,VALID,328,VALID,0.5375,
2009-06-10, 02:53:04,VALID,1003.27,VALID,0,VALID,93.2874,VALID,0,VALID,23.6036,VALID,348,VALID,1.32852,
2009-06-10, 02:54:04,VALID,1003.28,VALID,0,VALID,93.2645,VALID,0,VALID,23.6036,VALID,322,VALID,0.345313,
2009-06-10, 02:55:04,VALID,1003.24,VALID,0,VALID,93.2568,VALID,0,VALID,23.6036,VALID,342,VALID,0.471484,
2009-06-10, 02:56:04,VALID,1003.24,VALID,0,VALID,93.3103,VALID,0,VALID,23.625,VALID,359,VALID,1.49141,
2009-06-10, 02:57:04,VALID,1003.26,VALID,0,VALID,93.234,VALID,0,VALID,23.5841,VALID,5,VALID,1.64648,
2009-06-10, 02:58:04,VALID,1003.25,VALID,0,VALID,93.1729,VALID,0,VALID,23.5841,VALID,2,VALID,1.36914,
2009-06-10, 02:59:04,VALID,1003.28,VALID,0,VALID,93.0737,VALID,0,VALID,23.6054,VALID,17,VALID,1.66016,
2009-06-10, 03:00:04,VALID,1003.28,VALID,0,VALID,92.9211,VALID,0,VALID,23.625,VALID,355,VALID,1.84922,
2009-06-10, 03:01:04,VALID,1003.3,VALID,0,VALID,92.8448,VALID,0,VALID,23.6232,VALID,4,VALID,1.79648,
2009-06-10, 03:02:04,VALID,1003.34,VALID,0,VALID,92.6236,VALID,0,VALID,23.6427,VALID,23,VALID,1.80039,
2009-06-10, 03:03:04,VALID,1003.33,VALID,0,VALID,92.6312,VALID,0,VALID,23.6427,VALID,37,VALID,1.77461,
2009-06-10, 03:04:04,VALID,1003.37,VALID,0,VALID,92.7991,VALID,0,VALID,23.6427,VALID,33,VALID,1.32109,
2009-06-10, 03:05:04,VALID,1003.35,VALID,0,VALID,92.9059,VALID,0,VALID,23.6232,VALID,20,VALID,1.06523,
2009-06-10, 03:06:04,VALID,1003.35,VALID,0,VALID,92.9974,VALID,0,VALID,23.6232,VALID,7,VALID,1.13203,
2009-06-10, 03:07:04,VALID,1003.32,VALID,0,VALID,93.0432,VALID,0,VALID,23.6036,VALID,18,VALID,1.24609,
2009-06-10, 03:08:04,VALID,1003.31,VALID,0,VALID,93.028,VALID,0,VALID,23.5859,VALID,10,VALID,1.15156,
2009-06-10, 03:09:04,VALID,1003.29,VALID,0,VALID,93.0356,VALID,0,VALID,23.5451,VALID,359,VALID,1.23867,
2009-06-10, 03:10:04,VALID,1003.33,VALID,0,VALID,93.1348,VALID,0,VALID,23.5451,VALID,4,VALID,0.880078,
2009-06-10, 03:11:04,VALID,1003.3,VALID,0,VALID,93.1348,VALID,0,VALID,23.5451,VALID,21,VALID,0.985937,
2009-06-10, 03:12:04,VALID,1003.29,VALID,0,VALID,93.1958,VALID,0,VALID,23.5664,VALID,33,VALID,0.666797,
2009-06-10, 03:13:04,VALID,1003.3,VALID,0,VALID,93.1348,VALID,0,VALID,23.5274,VALID,34,VALID,0.874609,
2009-06-10, 03:14:04,VALID,1003.26,VALID,0,VALID,92.944,VALID,0,VALID,23.4866,VALID,40,VALID,1.02148,
2009-06-10, 03:15:04,VALID,1003.24,VALID,0,VALID,92.9669,VALID,0,VALID,23.4866,VALID,46,VALID,0.870703,
2009-06-10, 03:16:04,VALID,1003.23,VALID,0,VALID,92.944,VALID,0,VALID,23.4475,VALID,57,VALID,1.3082,
2009-06-10, 03:17:04,VALID,1003.23,VALID,0,VALID,92.9288,VALID,0,VALID,23.4475,VALID,52,VALID,0.980469,
2009-06-10, 03:18:04,VALID,1003.21,VALID,0,VALID,92.9593,VALID,0,VALID,23.4493,VALID,54,VALID,0.813281,
2009-06-10, 03:19:04,VALID,1003.2,VALID,0,VALID,92.9059,VALID,0,VALID,23.4085,VALID,78,VALID,1.34844,
2009-06-10, 03:20:04,VALID,1003.16,VALID,0,VALID,92.9593,VALID,0,VALID,23.3713,VALID,80,VALID,1.04766,
2009-06-10, 03:21:04,VALID,1003.16,VALID,0,VALID,93.028,VALID,0,VALID,23.35,VALID,87,VALID,1.2582,
2009-06-10, 03:22:04,VALID,1003.15,VALID,0,VALID,93.089,VALID,0,VALID,23.3305,VALID,83,VALID,0.976172,
2009-06-10, 03:23:04,VALID,1003.16,VALID,0,VALID,93.1348,VALID,0,VALID,23.3323,VALID,81,VALID,0.941406,
2009-06-10, 03:24:04,VALID,1003.18,VALID,0,VALID,93.1195,VALID,0,VALID,23.3323,VALID,83,VALID,1.16484,
2009-06-10, 03:25:04,VALID,1003.19,VALID,0,VALID,93.234,VALID,0,VALID,23.3127,VALID,83,VALID,0.861719,
2009-06-10, 03:26:04,VALID,1003.19,VALID,0,VALID,93.2721,VALID,0,VALID,23.2915,VALID,84,VALID,1.025,
2009-06-10, 03:27:04,VALID,1003.16,VALID,0,VALID,93.2721,VALID,0,VALID,23.2524,VALID,97,VALID,1.15781,
2009-06-10, 03:28:04,VALID,1003.19,VALID,0,VALID,93.3255,VALID,0,VALID,23.2719,VALID,102,VALID,1.1957,
2009-06-10, 03:29:04,VALID,1003.2,VALID,0,VALID,93.356,VALID,0,VALID,23.2524,VALID,105,VALID,1.2707,
2009-06-10, 03:30:04,VALID,1003.25,VALID,0,VALID,93.4171,VALID,0,VALID,23.2524,VALID,108,VALID,1.17344,
2009-06-10, 03:31:04,VALID,1003.27,VALID,0,VALID,93.4476,VALID,0,VALID,23.2524,VALID,108,VALID,1.16836,
2009-06-10, 03:32:04,VALID,1003.29,VALID,0,VALID,93.5163,VALID,0,VALID,23.2524,VALID,109,VALID,1.14883,
2009-06-10, 03:33:04,VALID,1003.32,VALID,0,VALID,93.5544,VALID,0,VALID,23.2719,VALID,112,VALID,1.41094,
2009-06-10, 03:34:04,VALID,1003.34,VALID,0,VALID,93.5163,VALID,0,VALID,23.2719,VALID,116,VALID,1.45664,
2009-06-10, 03:35:04,VALID,1003.4,VALID,0,VALID,93.5544,VALID,0,VALID,23.2719,VALID,110,VALID,1.37969,
2009-06-10, 03:36:04,VALID,1003.37,VALID,0,VALID,93.5468,VALID,0,VALID,23.2915,VALID,121,VALID,1.51484,
2009-06-10, 03:37:04,VALID,1003.39,VALID,0,VALID,93.5544,VALID,0,VALID,23.2915,VALID,122,VALID,1.50234,
2009-06-10, 03:38:04,VALID,1003.36,VALID,0,VALID,93.562,VALID,0,VALID,23.2915,VALID,119,VALID,1.14766,
2009-06-10, 03:39:04,VALID,1003.34,VALID,0,VALID,93.562,VALID,0,VALID,23.3323,VALID,116,VALID,1.10664,
2009-06-10, 03:40:04,VALID,1003.33,VALID,0,VALID,93.5468,VALID,0,VALID,23.311,VALID,114,VALID,1.33281,
2009-06-10, 03:41:04,VALID,1003.3,VALID,0,VALID,93.5544,VALID,0,VALID,23.311,VALID,115,VALID,1.05977,
2009-06-10, 03:42:04,VALID,1003.28,VALID,0,VALID,93.5163,VALID,0,VALID,23.2915,VALID,116,VALID,1.62773,
2009-06-10, 03:43:04,VALID,1003.28,VALID,0,VALID,93.5773,VALID,0,VALID,23.2719,VALID,126,VALID,1.13398,
2009-06-10, 03:44:04,VALID,1003.24,VALID,0,VALID,93.5926,VALID,0,VALID,23.2719,VALID,123,VALID,1.07617,
2009-06-10, 03:45:04,VALID,1003.25,VALID,0,VALID,93.6383,VALID,0,VALID,23.2915,VALID,123,VALID,0.716406,
2009-06-10, 03:46:04,VALID,1003.24,VALID,0,VALID,93.646,VALID,0,VALID,23.2915,VALID,126,VALID,0.483984,
2009-06-10, 03:47:04,VALID,1003.19,VALID,0,VALID,93.6307,VALID,0,VALID,23.2719,VALID,118,VALID,0.561328,